Regional Weather Roundup
Issued by NWS

Home | Current Version | Previous Version | Text Only | Print | Product List | Glossary On
Versions: 1 2 3 4 5 6 7 8 9 10 11 12 13 14 15 16 17 18 19 20 21 22 23 24 25 26 27 28 29 30 31 32 33 34 35 36 37 38 39 40 41 42 43 44 45 46 47 48 49 50
000
ASUS43 KDTX 261610
RWRMI
MICHIGAN HOURLY REGIONAL WEATHER ROUNDUP
NATIONAL WEATHER SERVICE DETROIT/PONTIAC MI
1100 AM EST THU FEB 26 2015

NOTE: "FAIR" INDICATES FEW OR NO CLOUDS BELOW 12,000 FEET WITH NO
SIGNIFICANT WEATHER AND/OR OBSTRUCTION TO VISIBILITY.

MIZ047>049-052>055-059>063-066>070-074>076-081>083-261700-
SOUTHEAST LOWER MICHIGAN

CITY           SKY/WX    TMP DP  RH WIND       PRES   REMARKS
ADRIAN         LGT SNOW  11   4  73 NE8       30.15S
ALMA           MOSUNNY    3  -6  65 N8        30.22R
ANN ARBOR      LGT SNOW  11   4  73 N6        30.15R
BAD AXE        LGT SNOW   9   4  82 N8        30.18R
DETROIT CITY   LGT SNOW  12   4  70 N7        30.16R
DETROIT        LGT SNOW  11   4  73 N10       30.16S WCI  -3
FLINT          CLOUDY     8  -1  66 N9        30.18R
GROSSE ILE     LGT SNOW  10   5  79 NE8       30.15R
HILLSDALE      LGT SNOW  11   3  68 N6        30.11R
HOWELL         CLOUDY     6   0  74 N7        30.15R HAZE

CITY           SKY/WX    TMP DP  RH WIND       PRES   REMARKS
JACKSON        LGT SNOW  10   2  69 VRB7      30.15R
LAMBERTVILLE   LGT SNOW  12   5  73 N7        30.15S
LANSING        PTSUNNY    7  -2  66 N9        30.19S HAZE
LAPEER         NOT AVBL
MASON          CLOUDY     7   0  70 N5        30.16S HAZE
MONROE         LGT SNOW  10   5  79 N7        30.14R
MT. CLEMENS    LGT SNOW  10   3  74 N8        30.14R
PONTIAC        LGT SNOW   8   1  73 NW9       30.12S
PORT HOPE        N/A      9   1  70 NE12      30.18R WCI  -6
PORT HURON     LGT SNOW   9   3  78 NW3       30.16S
TRI CITIES     CLOUDY     6  -4  63 N10       30.22R WCI  -9
YPSILANTI      LGT SNOW  14   5  67 N12       30.16R
$$
MIZ043>046-050>051-056>058-064>065-071>073-077>080-261700-
SOUTHWEST LOWER MICHIGAN

CITY           SKY/WX    TMP DP  RH WIND       PRES   REMARKS
BATTLE CREEK   CLOUDY    10   1  67 N8        30.16R
BENTON HARBOR  CLOUDY    11   5  77 N6        30.21R HAZE
BIG RAPIDS       N/A      3  -7  63 NE6       30.20S
COLDWATER      CLOUDY    10   3  71 NE8       30.14R HAZE
HOLLAND        SUNNY      8  -5  55 NE9       30.22S
GRAND RAPIDS   MOSUNNY    8  -4  58 N5        30.20S
KALAMAZOO      CLOUDY     9   1  70 N9        30.18R
MARSHALL       CLOUDY     8   0  71 N6        30.15S HAZE
MUSKEGON       MOSUNNY    7  -8  50 N8        30.24F
$$
MIZ016>042-261700-
NORTHERN LOWER MICHIGAN

CITY           SKY/WX    TMP DP  RH WIND       PRES   REMARKS
BEAVER ISLAND  SUNNY      1 -11  58 NW3       30.29S
BELLAIRE       SUNNY      1  -7  69 CALM      30.29S
CADILLAC       SUNNY      2  -8  60 N7        30.16S
CHARLEVOIX     SUNNY     -2  -8  74 CALM      30.32R
FRANKFORT      SUNNY      5  -6  59 NE3       30.28S
GAYLORD        MOSUNNY    1  -7  68 N6        30.18R
GRAYLING       MOSUNNY    3  -8  59 NE8       30.20R
HARBOR SPRINGS SUNNY     -4 -11  71 SW6       30.27R
HOUGHTON LAKE  SUNNY      4  -7  60 VRB7      30.19S
MANISTEE       SUNNY      5  -8  56 NE5       30.27S
OSCODA         LGT SNOW   7   2  78 N10       30.21R WCI  -7
PELLSTON       SUNNY      0  -7  72 NW3       30.28R
TRAVERSE CITY  MOSUNNY    0  -6  76 N6        30.28R
$$
MIZ007>008-015-261700-
EASTERN UPPER MICHIGAN

CITY           SKY/WX    TMP DP  RH WIND       PRES   REMARKS
KINROSS        SUNNY     16   7  67 CALM      30.27R
MACKINAC ISLAN SUNNY      2 -12  51 NE3       30.27R
NEWBERRY       MOSUNNY    1  -8  67 N8        30.27R
S. S. MARIE    SUNNY      2 -10  57 W5        30.27R
$$
MIZ004>006-011>014-085-261700-
CENTRAL UPPER MICHIGAN

CITY           SKY/WX    TMP DP  RH WIND       PRES   REMARKS
MANISTIQUE     SUNNY      2  -7  65 N5        30.30S
ESCANABA       SUNNY      3 -11  51 N9        30.33S
MENOMINEE      MOSUNNY    3  -6  66 N9        30.32S
SAWYER-GWINN   PTSUNNY    0  -6  78 N3        30.25R
$$
MIZ001>003-009>011-084-261700-
WESTERN UPPER MICHIGAN

CITY           SKY/WX    TMP DP  RH WIND       PRES   REMARKS
IRON MOUNTAIN  MOSUNNY    1  -9  62 N8        30.27S
HOUGHTON       MOSUNNY   -1 -10  65 NW15      30.30R WCI -21
COPPER HARBOR    N/A      1  -7  68 N12       30.34R WCI -16
IRONWOOD       CLOUDY     0  -8  71 N9        30.30S
$$

ABBREVIATIONS USED IN REMARKS
   TC - TEMPERATURE IN CELSIUS
  WCI - WIND CHILL INDEX
   HX - HEAT INDEX
  VSB - VISIBILITY



USA.gov is the U.S. government's official web portal to all federal, state and local government web resources and services.